Location: Newark
(52.3500°N, 175.9667°E)
Time: 22:08:57
(UTC+00:00)

Transit 4A - Pass Details

Date: 21 April 2021
Orbit: 871 x 974 km, 66.8° (Epoch: 16 May)

Event Time Altitude Azimuth Distance (km) Brightness Sun altitude
Rises 16:44:17 0° 308° (NW) 3,565 10.7 -3.7°
Reaches altitude 10° 16:47:26 10° 323° (NW) 2,603 10.1 -3.2°
Maximum altitude 16:52:04 22° 14° (NNE) 1,845 10.0 -2.6°
Drops below altitude 10° 16:56:38 10° 64° (ENE) 2,552 12.4 -1.9°
Sets 16:59:41 0° 80° (E) 3,478 13.1 -1.5°
